CZ-6A DEB

Satellite information

Favourite Embed

Satellite Type and Status

DEBRISIN ORBIT

Key statistics

Satellite CZ-6A DEB at a glance.

Uptime

1072

Days in orbit

Revolutions

≈ 14.4

Per day

Orbit

SSO

Sun Synchronous Orbit

Inclination

98.8

Latest

Satellite identification and parameters

Extended collection of information and parameters for CZ-6A DEB.

Object identification

Identified? True

Debris? True

Object name: CZ-6A DEB

International designator: 2022-151AGZ

Object number (NORAD): 56673

Object ID (CCSDS): 56673

Country: PEOPLES REPUBLIC OF CHINA (PRC)

Current information (Y/N): Y

RCS size: SMALL

Orbital parameters

Period: 100.333 minutes

Inclination: 98.7623 deg

SMA: 7152.491 km

Apoapsis: 797.508 km

Periapsis: 751.204 km

RAAN: 317.1406 deg

Eccentricy: 0.00323688

Argument of periapsis: 306.8299 deg

Mean anomaly: 52.9918 deg

Mean motion: 14.352144 rev/day

Mean motion (dot): 0.0000602 rev/day2

B* drag term: 0.0021067587 1/REarth

Two-line elements (TLE)

Creation date: Oct. 18, 2025, 2:17 a.m.

Reference frame: TEME

Reference center: EARTH

Epoch: Oct. 17, 2025, 1:20 p.m. UTC

TLE line 0: 0 CZ-6A DEB

TLE line 1: 1 56673U 22151AGZ 25290.55560584 .00006020 00000-0 21068-2 0 9991

TLE line 2: 2 56673 98.7623 317.1406 0032369 306.8299 52.9918 14.35214400 61089

Live tracking on map

Real-time ground track for satellite CZ-6A DEB.

In-orbit conjunctions

A list of the most updated potential collisions computed for object CZ-6A DEB.

Target Orbit TCA Probability of collision Miss distance Type
COSMOS 1420 LEO 2025-02-18 12:43:07 0.0001503038 364.0 (m) PAYLOAD
CZ-6A R/B LEO 2024-11-19 20:03:34 0.002192129 46.0 (m) ROCKET BODY
COSMOS 1867 COOLANT LEO 2024-11-02 05:51:52 0.0001228348 127.0 (m) DEBRIS
SL-8 R/B LEO 2024-10-01 08:12:59 0.0003537192 308.0 (m) ROCKET BODY
COSMOS 807 LEO 2024-09-11 14:10:12 0.0001521088 290.0 (m) PAYLOAD

Associated space launch

Chinese satellite reported for atmospheric/ocean/environmental/spatial parameter research purposes, details TBD.

CZ-6A DEB was lifted into orbit during the mission ‘Long March 6A | Yunhai 3’, on board a Long March 6A space rocket.

The launch took place on Nov. 11, 2022, 10:52 p.m. from Launch Complex 9A.

For more information about the launch, click the button.

Launch to space Long March 6A | Yunhai 3
Long March 6A | Yunhai 3

Agency: N/A

Status: Launch Successful

Launch date: Nov. 11, 2022, 10:52 p.m. UTC

Rocket: Long March 6A

Launch pad: Launch Complex 9A

Location: Taiyuan Satellite Launch Center, People's Republic of China

...

Latest news about this satellite

There are no fresh news available about this satellite. Check back as we update our databases every day.


Newsletter sign-up

Weekly statistics, charts and insights to help you stay on top of the space industry.